SBULSBCF

Guest
Details From SBUL - Ten Cel Av Cesar Bombonato
To SBCF - Tancredo Neves
Flight Number -
Tags Generated
Created
Modified
Stats Distance 245 nm / 454 km
Max Altitude 0 ft / 0 m
Waypoints 3
Social Downloads 3
Likes 0
Share VATSIM

Download

Looking for another format? Having issues loading an existing format? Contact us
Advertisement - Login to hide

Notes

Generated

Route

SBUL VISTA SBCF

ID Type Via Altitude Latitude Longitude Leg Dist Tot Dist Heading (true) Name
O SBUL APT - 0 ft / 0 m -18.89096˚ -48.22916˚ - 0 nm - -
VISTA FIX - 0 ft / 0 m -19.56200˚ -44.31400˚ 225 nm 225 nm 101° / 100° -
O SBCF APT - 0 ft / 0 m -19.62356˚ -43.97828˚ 19 nm 244 nm 101° / 101° -

Altitude Profile

Advertisement - Login to hide

Weather


0- 5 10 15 20 25 30 35+ Temperature / ° C

Clouds and Precipitation
Forecast for 2018-05-20 18:00 UTC. Updated an hour ago

Ground ~20,000 ft ~40,000 ft Winds

SBUL

Details ICAO SBUL (UDI)
Name TEN CEL AV CESAR BOMBONATO
Region Brazil
Timezone America/Sao_Paulo (UTC-3.0)
Stats Elevation 3,094 ft / 943 m (AMSL)
Location -18.882843° -48.225593°
Runways 1
Magnetic Variation 21.308° W

METAR

Not found

TAF

TAF SBUL 201010Z 2012/2024 22008KT CAVOK TX19/2017Z TN11/2024Z PROB30 2012/2014 SCT004 BECMG 2018/2020 18005KT RMK PGN

Decode

Departure Runways

ID Width Length Bearing (true) Bearing (mag) Surface Threshold Offset Overrun Length
04 148 ft / 45 m 6,418 ft / 1,956 m 22.56° 43.87° Asphalt 0 ft / 0 m 0 ft / 0 m
22 148 ft / 45 m 6,418 ft / 1,956 m 202.55° 223.86° Asphalt 0 ft / 0 m 0 ft / 0 m

SBCF

Details ICAO SBCF (CNF)
Name Tancredo Neves
Region Brazil
Timezone America/Sao_Paulo (UTC-3.0)
Stats Elevation 2,715 ft / 828 m (AMSL)
Location -19.633758° -43.968854°
Runways 1
Magnetic Variation 22.843° W

METAR

SBCF 201600Z 25009KT CAVOK 18/10 Q1016

Decode

TAF

TAF SBCF 201000Z 2012/2112 25004KT 9999 SCT020 TX26/2017Z TN17/2109Z PROB30 2012/2014 BKN015 OVC028 BECMG 2016/2018 FEW025 FEW035TCU BECMG 2018/2020 20005KT CAVOK BECMG 2106/2108 16005KT RMK PDS

Decode

Destination Runways

ID Width Length Bearing (true) Bearing (mag) Surface Threshold Offset Overrun Length
16 148 ft / 45 m 9,872 ft / 3,009 m 138.97° 161.81° Asphalt 0 ft / 0 m 203 ft / 62 m
34 148 ft / 45 m 9,872 ft / 3,009 m 318.96° 341.80° Asphalt 0 ft / 0 m 203 ft / 62 m

Approach Navaids

Runway Type Ident Frequency Range Bearing (true) Bearing (mag) Slope Elevation
16 Localiser ICF 109.70 MHz 18 nm / 33 km 138.90° 161.75° - 2,716 ft / 828 m (AMSL)
16 Glidescope ICF 109.70 MHz 10 nm / 19 km 138.96° 161.81° 3.00° 2,716 ft / 828 m (AMSL)

Popular Alternatives